Time,TemperatureF,DewpointF,PressureIn,WindDirection,WindDirectionDegrees,WindSpeedMPH,WindSpeedGustMPH,Humidity,HourlyPrecipIn,Conditions,Clouds,dailyrainin,SolarRadiationWatts/m^2,SoftwareType,DateUTC
2013-10-18 00:04:00,54.1,19.9,29.59,North,-999,-999.0,-999.0,5,0.00,,,-99.99,0.0,Linux-Irox,2013-10-18 07:04:00,
2013-10-18 00:14:00,53.8,19.6,29.59,North,-999,-999.0,-999.0,5,0.00,,,-99.99,0.0,Linux-Irox,2013-10-18 07:14:00,
2013-10-18 00:24:00,53.6,19.4,29.59,North,-999,-999.0,-999.0,5,0.00,,,-99.99,0.0,Linux-Irox,2013-10-18 07:24:00,
2013-10-18 00:34:00,53.4,19.2,29.59,North,-999,-999.0,-999.0,5,0.00,,,-99.99,0.0,Linux-Irox,2013-10-18 07:34:00,
2013-10-18 00:44:00,53.1,18.9,29.59,North,-999,-999.0,-999.0,5,0.00,,,-99.99,0.0,Linux-Irox,2013-10-18 07:44:00,
2013-10-18 00:54:00,53.1,18.9,29.59,North,-999,-999.0,-999.0,5,0.00,,,-99.99,0.0,Linux-Irox,2013-10-18 07:54:00,
2013-10-18 01:04:00,52.5,18.3,29.59,North,-999,-999.0,-999.0,5,0.00,,,-99.99,0.0,Linux-Irox,2013-10-18 08:04:00,
2013-10-18 01:14:00,52.5,18.3,29.59,North,-999,-999.0,-999.0,5,0.00,,,-99.99,0.0,Linux-Irox,2013-10-18 08:14:00,
2013-10-18 01:24:00,52.0,17.8,29.59,North,-999,-999.0,-999.0,5,0.00,,,-99.99,0.0,Linux-Irox,2013-10-18 08:24:00,
2013-10-18 01:34:00,52.7,18.5,29.59,North,-999,-999.0,-999.0,5,0.00,,,-99.99,0.0,Linux-Irox,2013-10-18 08:34:00,
2013-10-18 01:44:00,53.2,19.0,29.59,North,-999,-999.0,-999.0,5,0.00,,,-99.99,0.0,Linux-Irox,2013-10-18 08:44:00,
2013-10-18 01:54:00,53.8,19.6,29.59,North,-999,-999.0,-999.0,5,0.00,,,-99.99,0.0,Linux-Irox,2013-10-18 08:54:00,
2013-10-18 02:04:00,53.8,19.6,29.59,North,-999,-999.0,-999.0,5,0.00,,,-99.99,0.0,Linux-Irox,2013-10-18 09:04:00,
2013-10-18 02:14:00,51.8,17.6,29.59,North,-999,-999.0,-999.0,5,0.00,,,-99.99,0.0,Linux-Irox,2013-10-18 09:14:00,
2013-10-18 02:24:00,51.3,17.4,29.60,North,-999,-999.0,-999.0,6,0.00,,,-99.99,0.0,Linux-Irox,2013-10-18 09:24:00,
2013-10-18 02:34:00,50.9,17.1,29.60,North,-999,-999.0,-999.0,6,0.00,,,-99.99,0.0,Linux-Irox,2013-10-18 09:34:00,
2013-10-18 02:44:00,50.7,16.9,29.60,North,-999,-999.0,-999.0,6,0.00,,,-99.99,0.0,Linux-Irox,2013-10-18 09:44:00,
2013-10-18 02:54:00,50.5,16.7,29.60,North,-999,-999.0,-999.0,6,0.00,,,-99.99,0.0,Linux-Irox,2013-10-18 09:54:00,
2013-10-18 03:04:00,50.4,16.5,29.60,North,-999,-999.0,-999.0,6,0.00,,,-99.99,0.0,Linux-Irox,2013-10-18 10:04:00,
2013-10-18 03:14:00,50.5,17.8,29.60,North,-999,-999.0,-999.0,9,0.00,,,-99.99,0.0,Linux-Irox,2013-10-18 10:14:00,
2013-10-18 03:24:00,51.1,17.2,29.60,North,-999,-999.0,-999.0,6,0.00,,,-99.99,0.0,Linux-Irox,2013-10-18 10:24:00,
2013-10-18 03:34:00,50.9,17.1,29.60,North,-999,-999.0,-999.0,6,0.00,,,-99.99,0.0,Linux-Irox,2013-10-18 10:34:00,
2013-10-18 03:44:00,50.5,16.7,29.61,North,-999,-999.0,-999.0,6,0.00,,,-99.99,0.0,Linux-Irox,2013-10-18 10:44:00,
2013-10-18 03:54:00,50.2,17.4,29.61,North,-999,-999.0,-999.0,9,0.00,,,-99.99,0.0,Linux-Irox,2013-10-18 10:54:00,
2013-10-18 04:04:00,50.2,17.4,29.60,North,-999,-999.0,-999.0,9,0.00,,,-99.99,0.0,Linux-Irox,2013-10-18 11:04:00,
2013-10-18 04:14:00,50.4,17.6,29.60,North,-999,-999.0,-999.0,9,0.00,,,-99.99,0.0,Linux-Irox,2013-10-18 11:14:00,
2013-10-18 04:24:00,50.9,18.1,29.61,North,-999,-999.0,-999.0,9,0.00,,,-99.99,0.0,Linux-Irox,2013-10-18 11:24:00,
2013-10-18 04:34:00,50.5,17.8,29.61,North,-999,-999.0,-999.0,9,0.00,,,-99.99,0.0,Linux-Irox,2013-10-18 11:34:00,
2013-10-18 04:44:00,50.5,17.8,29.60,North,-999,-999.0,-999.0,9,0.00,,,-99.99,0.0,Linux-Irox,2013-10-18 11:44:00,
2013-10-18 04:54:00,50.5,17.8,29.60,North,-999,-999.0,-999.0,9,0.00,,,-99.99,0.0,Linux-Irox,2013-10-18 11:54:00,
2013-10-18 05:04:00,50.2,17.4,29.60,North,-999,-999.0,-999.0,9,0.00,,,-99.99,0.0,Linux-Irox,2013-10-18 12:04:00,
2013-10-18 05:14:00,49.8,17.4,29.60,North,-999,-999.0,-999.0,10,0.00,,,-99.99,0.0,Linux-Irox,2013-10-18 12:14:00,
2013-10-18 05:24:00,49.8,17.4,29.61,North,-999,-999.0,-999.0,10,0.00,,,-99.99,0.0,Linux-Irox,2013-10-18 12:24:00,
2013-10-18 05:34:00,49.8,17.4,29.61,North,-999,-999.0,-999.0,10,0.00,,,-99.99,0.0,Linux-Irox,2013-10-18 12:34:00,
2013-10-18 05:44:00,49.8,17.4,29.61,North,-999,-999.0,-999.0,10,0.00,,,-99.99,0.0,Linux-Irox,2013-10-18 12:44:00,
2013-10-18 05:46:00,49.6,17.2,29.61,North,-999,-999.0,-999.0,10,0.00,,,-99.99,0.0,Linux-Irox,2013-10-18 12:46:00,
2013-10-18 05:54:00,49.5,17.1,29.61,North,-999,-999.0,-999.0,10,0.00,,,-99.99,0.0,Linux-Irox,2013-10-18 12:54:00,
2013-10-18 06:01:00,49.5,17.1,29.62,North,-999,-999.0,-999.0,10,0.00,,,-99.99,0.0,Linux-Irox,2013-10-18 13:01:00,
2013-10-18 06:04:00,49.5,17.1,29.62,North,-999,-999.0,-999.0,10,0.00,,,-99.99,0.0,Linux-Irox,2013-10-18 13:04:00,
2013-10-18 06:14:00,49.5,17.1,29.62,North,-999,-999.0,-999.0,10,0.00,,,-99.99,0.0,Linux-Irox,2013-10-18 13:14:00,
2013-10-18 06:17:00,49.3,16.9,29.61,North,-999,-999.0,-999.0,10,0.00,,,-99.99,0.0,Linux-Irox,2013-10-18 13:17:00,
2013-10-18 06:24:00,48.9,16.5,29.61,North,-999,-999.0,-999.0,10,0.00,,,-99.99,0.0,Linux-Irox,2013-10-18 13:24:00,
2013-10-18 06:31:00,49.3,16.9,29.61,North,-999,-999.0,-999.0,10,0.00,,,-99.99,0.0,Linux-Irox,2013-10-18 13:31:00,
2013-10-18 06:34:00,49.1,16.7,29.61,North,-999,-999.0,-999.0,10,0.00,,,-99.99,0.0,Linux-Irox,2013-10-18 13:34:00,
2013-10-18 06:44:00,48.9,16.5,29.62,North,-999,-999.0,-999.0,10,0.00,,,-99.99,0.0,Linux-Irox,2013-10-18 13:44:00,
2013-10-18 06:46:00,48.9,16.5,29.62,North,-999,-999.0,-999.0,10,0.00,,,-99.99,0.0,Linux-Irox,2013-10-18 13:46:00,
2013-10-18 06:54:00,48.9,16.5,29.62,North,-999,-999.0,-999.0,10,0.00,,,-99.99,0.0,Linux-Irox,2013-10-18 13:54:00,
2013-10-18 07:01:00,49.1,16.7,29.62,North,-999,-999.0,-999.0,10,0.00,,,-99.99,0.0,Linux-Irox,2013-10-18 14:01:00,
2013-10-18 07:04:00,49.1,16.7,29.62,North,-999,-999.0,-999.0,10,0.00,,,-99.99,0.0,Linux-Irox,2013-10-18 14:04:00,
2013-10-18 07:14:00,49.1,16.7,29.62,North,-999,-999.0,-999.0,10,0.00,,,-99.99,0.0,Linux-Irox,2013-10-18 14:14:00,
2013-10-18 07:16:00,49.1,16.7,29.62,North,-999,-999.0,-999.0,10,0.00,,,-99.99,0.0,Linux-Irox,2013-10-18 14:16:00,
2013-10-18 07:24:00,49.1,16.7,29.62,North,-999,-999.0,-999.0,10,0.00,,,-99.99,0.0,Linux-Irox,2013-10-18 14:24:00,
2013-10-18 07:31:00,49.1,16.7,29.62,North,-999,-999.0,-999.0,10,0.00,,,-99.99,0.0,Linux-Irox,2013-10-18 14:31:00,
2013-10-18 07:34:00,49.1,16.7,29.62,North,-999,-999.0,-999.0,10,0.00,,,-99.99,0.0,Linux-Irox,2013-10-18 14:34:00,
2013-10-18 07:44:00,50.0,17.2,29.64,North,-999,-999.0,-999.0,9,0.00,,,-99.99,0.0,Linux-Irox,2013-10-18 14:44:00,
2013-10-18 07:46:00,50.2,17.4,29.64,North,-999,-999.0,-999.0,9,0.00,,,-99.99,0.0,Linux-Irox,2013-10-18 14:46:00,
2013-10-18 07:54:00,51.1,18.3,29.64,North,-999,-999.0,-999.0,9,0.00,,,-99.99,0.0,Linux-Irox,2013-10-18 14:54:00,
2013-10-18 08:01:00,51.6,17.8,29.64,North,-999,-999.0,-999.0,6,0.00,,,-99.99,0.0,Linux-Irox,2013-10-18 15:01:00,
2013-10-18 08:09:00,52.2,18.0,29.64,North,-999,-999.0,-999.0,5,0.00,,,-99.99,0.0,Linux-Irox,2013-10-18 15:09:00,
2013-10-18 08:16:00,53.2,19.0,29.64,North,-999,-999.0,-999.0,5,0.00,,,-99.99,0.0,Linux-Irox,2013-10-18 15:16:00,
2013-10-18 08:31:00,54.3,20.1,29.64,North,-999,-999.0,-999.0,5,0.00,,,-99.99,0.0,Linux-Irox,2013-10-18 15:31:00,
2013-10-18 08:46:00,57.0,22.8,29.65,North,-999,-999.0,-999.0,5,0.00,,,-99.99,0.0,Linux-Irox,2013-10-18 15:46:00,
2013-10-18 09:01:00,58.5,24.3,29.65,North,-999,-999.0,-999.0,5,0.00,,,-99.99,0.0,Linux-Irox,2013-10-18 16:01:00,
2013-10-18 09:16:00,61.5,27.3,29.66,North,-999,-999.0,-999.0,5,0.00,,,-99.99,0.0,Linux-Irox,2013-10-18 16:16:00,
2013-10-18 09:31:00,66.2,32.0,29.66,North,-999,-999.0,-999.0,5,0.00,,,-99.99,0.0,Linux-Irox,2013-10-18 16:31:00,
2013-10-18 09:46:00,70.0,35.8,29.66,North,-999,-999.0,-999.0,5,0.00,,,-99.99,0.0,Linux-Irox,2013-10-18 16:46:00,
2013-10-18 10:01:00,72.7,38.5,29.66,North,-999,-999.0,-999.0,5,0.00,,,-99.99,0.0,Linux-Irox,2013-10-18 17:01:00,
2013-10-18 10:16:00,74.3,40.1,29.66,North,-999,-999.0,-999.0,5,0.00,,,-99.99,0.0,Linux-Irox,2013-10-18 17:16:00,
2013-10-18 10:31:00,75.6,41.4,29.66,North,-999,-999.0,-999.0,5,0.00,,,-99.99,0.0,Linux-Irox,2013-10-18 17:31:00,
2013-10-18 10:46:00,77.4,43.2,29.66,North,-999,-999.0,-999.0,5,0.00,,,-99.99,0.0,Linux-Irox,2013-10-18 17:46:00,
2013-10-18 11:01:00,77.0,42.8,29.65,North,-999,-999.0,-999.0,5,0.00,,,-99.99,0.0,Linux-Irox,2013-10-18 18:01:00,
2013-10-18 11:16:00,78.3,44.1,29.65,North,-999,-999.0,-999.0,5,0.00,,,-99.99,0.0,Linux-Irox,2013-10-18 18:16:00,
2013-10-18 11:31:00,77.5,43.3,29.65,North,-999,-999.0,-999.0,5,0.00,,,-99.99,0.0,Linux-Irox,2013-10-18 18:31:00,
2013-10-18 11:46:00,77.4,43.2,29.65,North,-999,-999.0,-999.0,5,0.00,,,-99.99,0.0,Linux-Irox,2013-10-18 18:46:00,
2013-10-18 12:01:00,76.8,42.6,29.65,North,-999,-999.0,-999.0,5,0.00,,,-99.99,0.0,Linux-Irox,2013-10-18 19:01:00,
2013-10-18 12:16:00,77.2,43.0,29.64,North,-999,-999.0,-999.0,5,0.00,,,-99.99,0.0,Linux-Irox,2013-10-18 19:16:00,
2013-10-18 12:31:00,77.5,43.3,29.64,North,-999,-999.0,-999.0,5,0.00,,,-99.99,0.0,Linux-Irox,2013-10-18 19:31:00,
2013-10-18 12:46:00,77.2,43.0,29.63,North,-999,-999.0,-999.0,5,0.00,,,-99.99,0.0,Linux-Irox,2013-10-18 19:46:00,
2013-10-18 13:01:00,77.2,43.0,29.63,North,-999,-999.0,-999.0,5,0.00,,,-99.99,0.0,Linux-Irox,2013-10-18 20:01:00,
2013-10-18 13:16:00,77.5,43.3,29.62,North,-999,-999.0,-999.0,5,0.00,,,-99.99,0.0,Linux-Irox,2013-10-18 20:16:00,
2013-10-18 13:31:00,77.7,43.5,29.62,North,-999,-999.0,-999.0,5,0.00,,,-99.99,0.0,Linux-Irox,2013-10-18 20:31:00,
2013-10-18 13:46:00,77.7,43.5,29.62,North,-999,-999.0,-999.0,5,0.00,,,-99.99,0.0,Linux-Irox,2013-10-18 20:46:00,
2013-10-18 14:01:00,78.1,43.9,29.61,North,-999,-999.0,-999.0,5,0.00,,,-99.99,0.0,Linux-Irox,2013-10-18 21:01:00,
2013-10-18 14:16:00,78.3,44.1,29.60,North,-999,-999.0,-999.0,5,0.00,,,-99.99,0.0,Linux-Irox,2013-10-18 21:16:00,
2013-10-18 14:31:00,79.5,45.3,29.60,North,-999,-999.0,-999.0,5,0.00,,,-99.99,0.0,Linux-Irox,2013-10-18 21:31:00,
2013-10-18 14:46:00,80.1,45.9,29.60,North,-999,-999.0,-999.0,5,0.00,,,-99.99,0.0,Linux-Irox,2013-10-18 21:46:00,
2013-10-18 15:01:00,79.7,45.5,29.60,North,-999,-999.0,-999.0,5,0.00,,,-99.99,0.0,Linux-Irox,2013-10-18 22:01:00,
2013-10-18 15:16:00,79.3,45.1,29.58,North,-999,-999.0,-999.0,5,0.00,,,-99.99,0.0,Linux-Irox,2013-10-18 22:16:00,
2013-10-18 15:31:00,77.7,43.5,29.58,North,-999,-999.0,-999.0,5,0.00,,,-99.99,0.0,Linux-Irox,2013-10-18 22:31:00,
2013-10-18 15:46:00,77.4,43.2,29.55,North,-999,-999.0,-999.0,5,0.00,,,-99.99,0.0,Linux-Irox,2013-10-18 22:46:00,
2013-10-18 16:01:00,76.3,42.1,29.59,North,-999,-999.0,-999.0,5,0.00,,,-99.99,0.0,Linux-Irox,2013-10-18 23:01:00,
2013-10-18 16:16:00,75.7,41.5,29.59,North,-999,-999.0,-999.0,5,0.00,,,-99.99,0.0,Linux-Irox,2013-10-18 23:16:00,
2013-10-18 16:31:00,75.0,40.8,29.59,North,-999,-999.0,-999.0,5,0.00,,,-99.99,0.0,Linux-Irox,2013-10-18 23:31:00,
2013-10-18 16:46:00,74.1,39.9,29.59,North,-999,-999.0,-999.0,5,0.00,,,-99.99,0.0,Linux-Irox,2013-10-18 23:46:00,
2013-10-18 17:01:00,73.6,39.4,29.60,North,-999,-999.0,-999.0,5,0.00,,,-99.99,0.0,Linux-Irox,2013-10-19 00:01:00,
2013-10-18 17:16:00,72.7,38.5,29.59,North,-999,-999.0,-999.0,5,0.00,,,-99.99,0.0,Linux-Irox,2013-10-19 00:16:00,
2013-10-18 17:31:00,71.8,37.6,29.59,North,-999,-999.0,-999.0,5,0.00,,,-99.99,0.0,Linux-Irox,2013-10-19 00:31:00,
2013-10-18 17:46:00,69.8,35.6,29.60,North,-999,-999.0,-999.0,5,0.00,,,-99.99,0.0,Linux-Irox,2013-10-19 00:46:00,
2013-10-18 18:01:00,68.5,34.3,29.60,North,-999,-999.0,-999.0,5,0.00,,,-99.99,0.0,Linux-Irox,2013-10-19 01:01:00,
2013-10-18 18:16:00,66.7,32.5,29.60,North,-999,-999.0,-999.0,5,0.00,,,-99.99,0.0,Linux-Irox,2013-10-19 01:16:00,
2013-10-18 18:31:00,65.5,31.3,29.60,North,-999,-999.0,-999.0,5,0.00,,,-99.99,0.0,Linux-Irox,2013-10-19 01:31:00,
2013-10-18 18:46:00,64.0,29.8,29.61,North,-999,-999.0,-999.0,5,0.00,,,-99.99,0.0,Linux-Irox,2013-10-19 01:46:00,
2013-10-18 19:01:00,63.3,29.1,29.61,North,-999,-999.0,-999.0,5,0.00,,,-99.99,0.0,Linux-Irox,2013-10-19 02:01:00,
2013-10-18 19:16:00,62.4,28.2,29.62,North,-999,-999.0,-999.0,5,0.00,,,-99.99,0.0,Linux-Irox,2013-10-19 02:16:00,
2013-10-18 19:31:00,61.5,27.3,29.62,North,-999,-999.0,-999.0,5,0.00,,,-99.99,0.0,Linux-Irox,2013-10-19 02:31:00,
2013-10-18 19:46:00,61.0,26.8,29.62,North,-999,-999.0,-999.0,5,0.00,,,-99.99,0.0,Linux-Irox,2013-10-19 02:46:00,
2013-10-18 20:01:00,60.6,26.4,29.63,North,-999,-999.0,-999.0,5,0.00,,,-99.99,0.0,Linux-Irox,2013-10-19 03:01:00,
2013-10-18 20:16:00,59.7,25.5,29.63,North,-999,-999.0,-999.0,5,0.00,,,-99.99,0.0,Linux-Irox,2013-10-19 03:16:00,
2013-10-18 20:31:00,59.7,25.5,29.63,North,-999,-999.0,-999.0,5,0.00,,,-99.99,0.0,Linux-Irox,2013-10-19 03:31:00,
2013-10-18 20:46:00,59.5,25.3,29.63,North,-999,-999.0,-999.0,5,0.00,,,-99.99,0.0,Linux-Irox,2013-10-19 03:46:00,
2013-10-18 21:01:00,59.5,25.3,29.64,North,-999,-999.0,-999.0,5,0.00,,,-99.99,0.0,Linux-Irox,2013-10-19 04:01:00,
2013-10-18 21:16:00,59.2,25.0,29.64,North,-999,-999.0,-999.0,5,0.00,,,-99.99,0.0,Linux-Irox,2013-10-19 04:16:00,
2013-10-18 21:31:00,59.0,24.8,29.64,North,-999,-999.0,-999.0,5,0.00,,,-99.99,0.0,Linux-Irox,2013-10-19 04:31:00,
2013-10-18 21:46:00,58.5,24.3,29.64,North,-999,-999.0,-999.0,5,0.00,,,-99.99,0.0,Linux-Irox,2013-10-19 04:46:00,
2013-10-18 22:01:00,58.3,24.1,29.64,North,-999,-999.0,-999.0,5,0.00,,,-99.99,0.0,Linux-Irox,2013-10-19 05:01:00,
2013-10-18 22:16:00,57.7,23.5,29.65,North,-999,-999.0,-999.0,5,0.00,,,-99.99,0.0,Linux-Irox,2013-10-19 05:16:00,